Flag for Moldova Weather past 2 weeks in Tiraspol, Moldova

36 °F

Mostly cloudy.

Feels Like: 28 °F
Forecast: 29 / 46 °F
Wind: 10 mph from Northwest

Location: Chisinau International Airport

Current Time: Nov 29, 2015 at 9:05:31 AM

Latest Report: Nov 29, 2015 at 8:30 AM

Visibility: N/A

Pressure: 29.80 "Hg

Humidity: 87%

Dew point: 32 °F

Location of TiraspolLocation

Historic Weather in Tiraspol — Graph


Tiraspol temperature yesterday

Maximum temperature yesterday: 39 °F (at 6:30 PM)
Minimum temperature yesterday: 34 °F (at 1:00 AM)
Average temperature yesterday: 36 °F

Past Weeks' High & Low Weather Summary

High63 °F (Nov 22, 10:30 AM)93% (Nov 17, 6:00 AM)30.30 "Hg (Nov 17, 6:00 AM)
Low25 °F (Nov 17, 6:00 AM)32% (Nov 15, 2:00 PM)29.24 "Hg (Nov 22, 4:30 AM)
Average44 °F71%29.89 "Hg
* Reported Nov 14 7:00 AM — Nov 29 7:00 AM, Tiraspol, Weather by CustomWeather, © 2015

Note: Actual official high and low records may vary slightly from our data, if they occured in-between our weather recording intervals... More about our weather records


Tiraspol weather history for previous 24 hours

Time TempWeatherWind HumidityBarometerVisibility
7:00 AM
Sun, Nov 29
36 °FLight rain. Mostly cloudy.15 mph81%29.77 "HgN/A
6:00 AM36 °FLight rain. Mostly cloudy.17 mph87%29.77 "HgN/A
5:30 AM36 °FLight rain. Mostly cloudy.16 mph87%29.74 "HgN/A
5:00 AM36 °FLight rain. Mostly cloudy.13 mph93%29.74 "HgN/A
4:30 AM37 °FLight rain. Mostly cloudy.13 mph87%29.74 "HgN/A
4:00 AM37 °FLight rain. Mostly cloudy.14 mph87%29.74 "HgN/A
3:30 AM37 °FLight rain. Mostly cloudy.16 mph87%29.71 "HgN/A
3:00 AM37 °FLight rain. Mostly cloudy.13 mph87%29.71 "HgN/A
2:30 AM37 °FLight rain. Mostly cloudy.13 mph87%29.71 "HgN/A
2:00 AM36 °FLight rain. Mostly cloudy.14 mph93%29.71 "Hg4 mi
1:30 AM36 °FLight rain. Mostly cloudy.15 mph93%29.71 "HgN/A
1:00 AM37 °FLight rain. Mostly cloudy.13 mph87%29.71 "Hg6 mi
12:00 AM37 °FLight rain. Mostly cloudy.13 mph87%29.74 "Hg4 mi
11:30 PM
Sat, Nov 28
37 °FLight rain. Mostly cloudy.12 mph87%29.74 "Hg4 mi
10:30 PM37 °FRain. Fog.13 mph87%29.74 "Hg2 mi
10:00 PM37 °FRain. Fog.10 mph87%29.74 "Hg2 mi
9:30 PM37 °FRain. Fog.9 mph93%29.74 "Hg2 mi
9:00 PM37 °FRain. Fog.9 mph93%29.74 "Hg2 mi
8:30 PM37 °FRain. Fog.8 mph93%29.74 "Hg2 mi
8:00 PM37 °FRain. Fog.8 mph93%29.74 "Hg2 mi
7:30 PM37 °FRain. Fog.10 mph93%29.77 "Hg2 mi
7:00 PM39 °FLight rain. Fog.9 mph87%29.77 "Hg2 mi
6:30 PM39 °FLight rain. Fog.10 mph87%29.77 "Hg2 mi
6:00 PM37 °FFog.9 mph93%29.77 "Hg3 mi
5:30 PM37 °FFog.9 mph93%29.77 "Hg2 mi
5:00 PM37 °FDrizzle. Fog.9 mph93%29.80 "Hg2 mi
4:30 PM37 °FFog.8 mph93%29.80 "Hg3 mi
4:00 PM37 °FLow clouds.9 mph93%29.80 "Hg5 mi
3:30 PM37 °FLow clouds.10 mph93%29.80 "Hg4 mi
3:00 PM37 °FLow clouds.13 mph87%29.80 "Hg5 mi
2:30 PM37 °FLow clouds.12 mph87%29.83 "Hg6 mi
2:00 PM37 °FLight rain. Low clouds.13 mph93%29.83 "Hg4 mi
1:30 PM37 °FLight rain. Fog.14 mph87%29.83 "Hg3 mi
1:00 PM37 °FLight rain. Fog.10 mph87%29.83 "Hg3 mi
12:30 PM37 °FLight rain. Fog.12 mph87%29.86 "Hg2 mi
12:00 PM36 °FLight rain. Fog.13 mph93%29.86 "Hg3 mi
11:30 AM36 °FLight rain. Fog.14 mph93%29.86 "Hg3 mi
11:00 AM36 °FLight rain. Fog.15 mph87%29.89 "Hg1 mi
10:30 AM36 °FLight rain. Fog.14 mph87%29.92 "Hg1 mi
10:00 AM36 °FLight rain. Fog.13 mph87%29.92 "Hg1 mi
Weather by CustomWeather, © 2015

See weather overviewHow to use our weather pages